TimeEST,TemperatureF,Dew PointF,Humidity,Sea Level PressureIn,VisibilityMPH,Wind Direction,Wind SpeedMPH,Gust SpeedMPH,PrecipitationIn,Events,Conditions,WindDirDegrees,DateUTC
12:51 AM,39.9,37.9,93,29.45,10.0,ESE,12.7,-,0.00,Rain,Light Rain,110,2012-01-12 05:51:00
1:18 AM,41.0,37.4,87,29.42,10.0,ESE,12.7,-,0.00,Rain,Light Rain,120,2012-01-12 06:18:00
1:51 AM,41.0,39.0,93,29.44,10.0,ESE,8.1,-,0.01,Rain,Light Rain,120,2012-01-12 06:51:00
2:34 AM,41.0,39.2,93,29.42,10.0,SE,6.9,-,0.00,Rain,Light Rain,130,2012-01-12 07:34:00
2:51 AM,41.0,39.0,93,29.44,9.0,ESE,11.5,-,0.00,Rain,Light Rain,120,2012-01-12 07:51:00
3:51 AM,41.0,39.0,93,29.43,5.0,SE,12.7,-,0.06,Rain,Light Rain,130,2012-01-12 08:51:00
4:51 AM,41.0,39.0,93,29.42,4.0,SE,9.2,-,0.01,Rain,Light Rain,130,2012-01-12 09:51:00
4:54 AM,41.0,39.2,93,29.39,3.0,SE,9.2,-,0.00,Rain,Light Rain,130,2012-01-12 09:54:00
5:51 AM,42.1,39.9,92,29.41,4.0,SSE,8.1,-,0.00,,Light Drizzle,160,2012-01-12 10:51:00
6:51 AM,42.1,41.0,96,29.40,3.0,SSE,6.9,-,0.00,,Light Drizzle,150,2012-01-12 11:51:00
7:15 AM,42.8,41.0,93,29.38,2.0,SSE,8.1,-,0.00,,Light Drizzle,150,2012-01-12 12:15:00
7:51 AM,42.1,41.0,96,29.40,2.0,SSE,8.1,-,0.00,,Light Drizzle,160,2012-01-12 12:51:00
7:54 AM,42.8,41.0,93,29.38,1.2,SSE,8.1,-,0.00,,Light Drizzle,160,2012-01-12 12:54:00
8:09 AM,42.8,41.0,93,29.38,0.5,SSE,5.8,-,0.00,Fog,Light Drizzle,160,2012-01-12 13:09:00
8:31 AM,42.8,41.0,93,29.38,1.0,SSE,8.1,-,0.00,,Overcast,160,2012-01-12 13:31:00
8:51 AM,43.0,41.0,93,29.40,1.0,SSE,5.8,-,0.00,,Overcast,160,2012-01-12 13:51:00
9:41 AM,44.6,42.8,93,29.40,0.8,SSW,9.2,-,0.00,Rain,Light Rain,200,2012-01-12 14:41:00
9:51 AM,44.1,42.1,93,29.41,1.2,SSW,10.4,-,0.01,Rain,Light Rain,210,2012-01-12 14:51:00
10:34 AM,44.6,42.8,93,29.39,2.0,SSW,13.8,19.6,0.05,Rain,Light Rain,210,2012-01-12 15:34:00
10:45 AM,44.6,42.8,93,29.39,4.0,SW,13.8,-,0.05,Rain,Light Rain,220,2012-01-12 15:45:00
10:51 AM,44.1,41.0,89,29.41,4.0,SSW,13.8,21.9,0.06,Rain,Light Rain,210,2012-01-12 15:51:00
11:51 AM,43.0,41.0,93,29.39,10.0,SSW,13.8,18.4,0.02,,Overcast,210,2012-01-12 16:51:00
12:18 PM,42.8,39.2,87,29.37,2.0,SSW,10.4,20.7,0.00,Rain,Light Rain,210,2012-01-12 17:18:00
12:38 PM,42.8,39.2,87,29.36,3.0,SW,11.5,19.6,0.00,Rain,Light Rain,220,2012-01-12 17:38:00
12:51 PM,43.0,39.9,89,29.37,3.0,SSW,12.7,19.6,0.00,Rain,Light Rain,210,2012-01-12 17:51:00
1:12 PM,42.8,39.2,87,29.35,10.0,SW,15.0,23.0,0.00,,Overcast,220,2012-01-12 18:12:00
1:51 PM,42.1,39.0,89,29.37,10.0,SW,13.8,19.6,0.00,,Overcast,220,2012-01-12 18:51:00
2:32 PM,42.8,39.2,87,29.35,10.0,SSW,9.2,-,N/A,,Overcast,210,2012-01-12 19:32:00
2:51 PM,42.1,39.0,89,29.37,10.0,SSW,10.4,23.0,N/A,,Overcast,210,2012-01-12 19:51:00
3:51 PM,43.0,37.9,82,29.37,10.0,SSW,9.2,-,N/A,,Overcast,210,2012-01-12 20:51:00
4:05 PM,42.8,37.4,81,29.36,10.0,SSW,9.2,-,N/A,,Overcast,210,2012-01-12 21:05:00
4:51 PM,43.0,39.0,86,29.38,10.0,SW,10.4,17.3,N/A,,Overcast,220,2012-01-12 21:51:00
5:44 PM,42.8,39.2,87,29.37,4.0,SSW,6.9,-,0.00,Rain,Light Rain,200,2012-01-12 22:44:00
5:51 PM,42.1,39.9,92,29.39,4.0,SSW,5.8,-,0.01,Rain,Light Rain,210,2012-01-12 22:51:00
6:51 PM,42.1,39.9,92,29.38,8.0,SSW,5.8,-,0.01,Rain,Light Rain,200,2012-01-12 23:51:00
7:17 PM,42.8,39.2,87,29.36,9.0,SSW,4.6,-,0.00,Rain,Light Rain,200,2012-01-13 00:17:00
7:43 PM,42.8,39.2,87,29.34,6.0,South,4.6,-,0.00,Rain,Light Rain,190,2012-01-13 00:43:00
7:51 PM,42.1,39.9,92,29.36,7.0,South,3.5,-,0.00,Rain,Light Rain,190,2012-01-13 00:51:00
8:51 PM,41.0,39.0,93,29.34,4.0,East,3.5,-,0.03,Rain,Light Rain,100,2012-01-13 01:51:00
9:16 PM,41.0,39.2,93,29.31,4.0,East,3.5,-,0.00,Rain,Light Rain,100,2012-01-13 02:16:00
9:41 PM,41.0,39.2,93,29.30,1.5,Calm,Calm,-,0.01,Rain,Rain,0,2012-01-13 02:41:00
9:51 PM,41.0,39.9,96,29.32,1.0,Calm,Calm,-,0.04,Rain,Rain,0,2012-01-13 02:51:00
10:16 PM,41.0,37.4,87,29.31,3.0,SW,12.7,-,0.07,Rain,Rain,220,2012-01-13 03:16:00
10:51 PM,36.0,34.0,93,29.35,3.0,WSW,17.3,27.6,0.16,Rain,Light Rain,250,2012-01-13 03:51:00
11:16 PM,33.8,30.2,87,29.35,0.8,WSW,17.3,-,0.02,Snow,Light Snow,240,2012-01-13 04:16:00
11:41 PM,32.0,30.2,93,29.34,0.8,West,18.4,25.3,0.05,Snow,Light Snow,270,2012-01-13 04:41:00
11:51 PM,32.0,30.0,92,29.37,0.8,WSW,20.7,31.1,0.05,Snow,Light Snow,250,2012-01-13 04:51:00